This demonstration page uses our WeatherBlox Daily Observations layout. Learn more.

Left ArrowRight Arrow

40.92945, -100.16068

Hourly Observations for April 28, 2015

Temp ( °F °C ) Dew Point ( °F °C ) Humidity (%) Winds ( mph kmh ) Pressure ( in mb ) Visibility ( mi km ) Precip ( " mm )
12:15 am 00:15 Clear 41 5 33 0.8 75 75 N N/A 30.30 1026 10 16 N/A
12:35 am 00:35 Clear 41 4.9 34 1 76 76 N N/A 30.30 1026 10 16 N/A
12:55 am 00:55 Clear 39 4 33 0.8 80 80 N N/A 30.30 1026 10 16 N/A
1:15 am 01:15 Clear 40 4.3 33 0.8 78 78 WNW 8 13 30.30 1026 10 16 N/A
1:35 am 01:35 Clear 41 5 34 1 76 76 NNW 9 15 30.33 1027 10 16 N/A
1:55 am 01:55 Clear 44 6.5 35 1.7 72 72 N 10 17 30.30 1026 10 16 N/A
2:15 am 02:15 Clear 47 8.1 38 3.4 73 73 N 13 20 30.30 1026 10 16 N/A
2:35 am 02:35 Clear 46 7.7 39 3.7 76 76 N 13 20 30.30 1026 10 16 N/A
2:55 am 02:55 Clear 46 7.9 40 4.5 79 79 N 10 17 30.27 1025 10 16 N/A
3:15 am 03:15 Clear 46 7.7 40 4.7 82 82 N 10 17 30.27 1025 10 16 N/A
3:35 am 03:35 Clear 46 8 41 5.1 82 82 N 13 20 30.30 1026 10 16 N/A
3:55 am 03:55 Clear 46 7.6 41 5.1 84 84 N 13 20 30.30 1026 10 16 N/A
4:15 am 04:15 Clear 45 7.2 41 5 86 86 N 12 19 30.30 1026 10 16 N/A
4:35 am 04:35 Clear 45 7 41 4.8 86 86 N 13 20 30.30 1026 10 16 N/A
4:55 am 04:55 Clear 44 6.7 41 4.8 88 88 N 13 20 30.30 1026 10 16 N/A
5:15 am 05:15 Clear 44 6.4 40 4.6 88 88 NNW 9 15 30.30 1026 7 11 N/A
5:35 am 05:35 Clear 41 5.2 39 3.7 90 90 WNW 7 11 30.33 1027 7 11 N/A
5:55 am 05:55 Clear 42 5.5 39 4 90 90 NW 8 13 30.30 1026 7 11 N/A
6:15 am 06:15 Clear 41 4.8 38 3.5 91 91 WNW 7 11 30.33 1027 7 11 N/A
6:35 am 06:35 Clear 42 5.5 40 4.3 92 92 NNW 8 13 30.30 1026 7 11 N/A
6:55 am 06:55 Sunny with Mist and Fog 42 5.5 39 4.1 91 91 NW 6 9 30.30 1026 5 8 N/A
7:15 am 07:15 Sunny with Mist and Fog 42 5.8 40 4.5 91 91 NNW 9 15 30.36 1028 5 8 N/A
7:35 am 07:35 Sunny 44 6.5 41 5.1 91 91 NNW 10 17 30.33 1027 7 11 N/A
7:55 am 07:55 Sunny 44 6.9 42 5.4 90 90 NNW 10 17 30.33 1027 7 11 N/A
8:15 am 08:15 Sunny 45 7.4 42 5.7 89 89 NNW 9 15 30.33 1027 7 11 N/A
8:35 am 08:35 Sunny 46 7.9 43 6 88 88 NNW 10 17 30.33 1027 10 16 N/A
8:55 am 08:55 Sunny 48 8.8 44 6.6 86 86 N 10 17 30.33 1027 10 16 N/A
9:15 am 09:15 Sunny 50 10.1 44 6.8 80 80 N 10 17 30.30 1026 10 16 N/A
9:35 am 09:35 Sunny 52 11.2 45 7.1 76 76 N 12 19 30.30 1026 10 16 N/A
9:55 am 09:55 Sunny 54 12 45 7.1 72 72 N 9 15 30.30 1026 10 16 N/A
10:15 am 10:15 Sunny 55 12.8 45 7.2 69 69 N 13 20 30.27 1025 10 16 N/A
10:35 am 10:35 Sunny 56 13.5 45 7.1 65 65 N 9 15 30.27 1025 10 16 N/A
10:55 am 10:55 Sunny 58 14.5 45 7.4 63 63 N 10 17 30.27 1025 10 16 N/A
11:15 am 11:15 Sunny 58 14.7 45 7.1 61 61 N 8 13 30.27 1025 10 16 N/A
11:35 am 11:35 Sunny 59 15.1 45 7.2 59 59 N 13 20 30.27 1025 10 16 N/A
11:55 am 11:55 Sunny 61 15.9 46 7.7 58 58 N 7 11 30.24 1024 10 16 N/A
12:15 pm 12:15 Sunny 61 16.1 45 7.1 55 55 N 9 15 30.21 1023 10 16 N/A
12:35 pm 12:35 Sunny 62 16.7 45 7.1 53 53 NNE 9 15 30.21 1023 10 16 N/A
12:55 pm 12:55 Sunny 62 16.9 43 6.3 50 50 NNW 9 15 30.21 1023 10 16 N/A
1:15 pm 13:15 Sunny 63 17.3 43 5.9 47 47 N 10 17 30.18 1022 10 16 N/A
1:35 pm 13:35 Sunny 64 18 44 6.8 48 48 NNE 3 6 30.18 1022 10 16 N/A
1:55 pm 13:55 Partly Cloudy 65 18.1 44 6.6 47 47 NNW 7 11 30.15 1021 10 16 N/A
2:15 pm 14:15 Partly Cloudy 66 19.1 43 6.2 43 43 NNW 8 13 30.12 1020 10 16 N/A
2:35 pm 14:35 Mostly Cloudy 65 18.6 41 5.1 41 41 N 7 11 30.12 1020 10 16 N/A
2:55 pm 14:55 Partly Cloudy 65 18.3 41 4.9 41 41 NNW 12 19 30.15 1021 10 16 N/A
3:15 pm 15:15 Partly Cloudy 65 18.1 41 5 42 42 NW 7 11 30.15 1021 10 16 N/A
3:35 pm 15:35 Mostly Cloudy 65 18.5 40 4.5 40 40 N 13 20 30.09 1019 10 16 N/A
3:55 pm 15:55 Mostly Cloudy 66 19.1 40 4.5 38 38 N 12 19 30.09 1019 10 16 N/A
4:15 pm 16:15 Cloudy 67 19.4 41 4.8 38 38 N 12 19 30.09 1019 10 16 N/A
4:35 pm 16:35 Mostly Cloudy 65 18.2 40 4.7 41 41 N 10 17 30.09 1019 10 16 N/A
4:55 pm 16:55 Cloudy 65 18.2 41 4.9 42 42 N 12 19 30.09 1019 10 16 N/A
5:15 pm 17:15 Cloudy 65 18.5 40 4.4 40 40 NW 16 26 30.09 1019 10 16 N/A
5:35 pm 17:35 Cloudy 65 18.2 40 4.2 40 40 NNW 14 22 30.09 1019 10 16 N/A
5:55 pm 17:55 Cloudy 65 18.5 40 4.4 40 40 N 12 19 30.06 1018 10 16 N/A
6:15 pm 18:15 Mostly Cloudy 65 18.6 41 4.8 40 40 N 16 26 30.06 1018 10 16 N/A
6:35 pm 18:35 Mostly Cloudy 65 18.1 40 4.6 41 41 N 13 20 30.06 1018 10 16 N/A
6:55 pm 18:55 Partly Cloudy 64 18 40 4.5 41 41 N 13 20 30.06 1018 10 16 N/A
7:15 pm 19:15 Partly Cloudy 62 16.8 40 4.3 44 44 N 10 17 30.09 1019 10 16 N/A
7:35 pm 19:35 Mostly Cloudy 61 16.3 41 4.9 47 47 N 6 9 30.09 1019 10 16 N/A
7:55 pm 19:55 Mostly Cloudy 60 15.8 43 5.9 52 52 N 6 9 30.09 1019 10 16 N/A
8:15 pm 20:15 Mostly Cloudy 59 15 41 5.1 52 52 N 7 11 30.09 1019 10 16 N/A
8:35 pm 20:35 Mostly Cloudy 57 13.8 40 4.6 54 54 N 6 9 30.12 1020 10 16 N/A
8:55 pm 20:55 Partly Cloudy 55 12.5 40 4.5 58 58 N 5 7 30.12 1020 10 16 N/A
9:15 pm 21:15 Partly Cloudy 54 12.1 40 4.4 60 60 N 3 6 30.12 1020 10 16 N/A
9:35 pm 21:35 Mostly Cloudy 51 10.8 39 4 63 63 NNW 3 6 30.15 1021 10 16 N/A
9:55 pm 21:55 Cloudy 51 10.7 41 5.1 69 69 NW 3 6 30.15 1021 10 16 N/A
10:15 pm 22:15 Cloudy 53 11.7 41 5 64 64 NNW 3 6 30.12 1020 10 16 N/A
10:35 pm 22:35 Cloudy 52 10.9 43 6 72 72 N 3 6 30.15 1021 10 16 N/A
10:55 pm 22:55 Partly Cloudy 51 10.5 42 5.6 72 72 N 3 6 30.18 1022 10 16 N/A
11:15 pm 23:15 Clear 50 10.2 42 5.3 72 72 N N/A 30.15 1021 10 16 N/A
11:35 pm 23:35 Clear 49 9.5 41 4.9 73 73 NNW 3 6 30.15 1021 10 16 N/A
11:55 pm 23:55 Clear 45 7.3 38 3.4 77 77 NNW 3 6 30.18 1022 10 16 N/A

Powered by AerisWeather